Weather History for KMSL - February, 2012

Change the Weather History Date:

Friday, February 3, 2012

  Actual Average Record
Temperature  
Mean Temperature 51 °F 43 °F  
Max Temperature 61 °F 53 °F 75 °F (1962)
Min Temperature 40 °F 33 °F 3 °F (1951)
Degree Days  
Heating Degree Days 14 22  
Month to date heating degree days 28 68  
Since 1 July heating degree days 1652 2048  
Cooling Degree Days 0 0  
Month to date cooling degree days 0 0  
Year to date cooling degree days 0 0  
Growing Degree Days 1 (Base 50)    
Moisture  
Dew Point 42 °F    
Average Humidity 67    
Maximum Humidity 89    
Minimum Humidity 44    
Precipitation  
Precipitation 0.12 in 0.16 in 3.64 in (1990)
Month to date precipitation 0.58 0.48  
Year to date precipitation 7.45 5.09  
Snow  
Snow 0.00 in - - ()
Month to date snowfall 0.0  
Since 1 July snowfall 0.1  
Snow Depth 0.00 in    
Sea Level Pressure  
Sea Level Pressure 30.26 in    
Wind  
Wind Speed 5 mph (ESE)    
Max Wind Speed 16 mph    
Max Gust Speed 20 mph    
Visibility 10 miles    
Events Rain    
T = Trace of Precipitation, MM = Missing Value Source: NWS Daily Summary

Daily Weather History Graph

Daily Weather History Graph

Search for Another Location

Airport or City:

Trip Planner

Search our weather history database for the weather conditions in past years. The results will help you decide how hot, cold, wet, or windy it might be!

Date:

Astronomy

Feb. 03, 2012 Rise Set
Actual Time 6:47 AM CST 5:21 PM CST
Civil Twilight 6:21 AM CST 5:47 PM CST
Nautical Twilight 5:51 AM CST 6:17 PM CST
Astronomical Twilight 5:21 AM CST 6:47 PM CST
Moon 1:27 PM CST 3:17 AM CST
Length of Visible Light 11h 26m
Length of Day
10h 33m
Waxing Gibbous, 82% of the Moon is Illuminated
Feb 3
Waxing Gibbous
Feb 7
Full
Feb 14
Last Quarter
Feb 21
New
Feb 29
First Quarter

Hourly Weather History & Observations

Time (CST) Temp. Windchill Dew Point Humidity Pressure Visibility Wind Dir Wind Speed Gust Speed Precip Events Conditions
12:53 AM 46.9 °F - 36.0 °F 66% 30.29 in 10.0 mi East 3.5 mph - N/A   Clear
1:53 AM 43.0 °F - 37.0 °F 80% 30.29 in 10.0 mi Calm Calm - N/A   Clear
2:53 AM 45.0 °F - 35.1 °F 68% 30.27 in 10.0 mi Calm Calm - N/A   Clear
3:53 AM 42.1 °F - 35.1 °F 76% 30.28 in 10.0 mi Calm Calm - N/A   Clear
4:53 AM 43.0 °F 40.3 °F 35.1 °F 74% 30.27 in 10.0 mi ENE 4.6 mph - N/A   Clear
5:53 AM 41.0 °F - 34.0 °F 76% 30.28 in 10.0 mi Calm Calm - N/A   Clear
6:53 AM 43.0 °F - 34.0 °F 71% 30.30 in 10.0 mi Calm Calm - N/A   Clear
7:53 AM 46.0 °F 44.8 °F 37.0 °F 71% 30.31 in 10.0 mi East 3.5 mph - N/A   Clear
8:53 AM 51.1 °F - 39.0 °F 63% 30.30 in 10.0 mi SE 5.8 mph - N/A   Clear
9:53 AM 57.0 °F - 37.0 °F 47% 30.32 in 10.0 mi SE 10.4 mph - N/A   Clear
10:53 AM 59.0 °F - 37.9 °F 46% 30.31 in 10.0 mi SE 10.4 mph - N/A   Clear
11:53 AM 61.0 °F - 39.0 °F 44% 30.28 in 10.0 mi SSE 11.5 mph 18.4 mph N/A   Clear
12:53 PM 61.0 °F - 39.0 °F 44% 30.27 in 10.0 mi SE 8.1 mph - N/A   Scattered Clouds
1:53 PM 61.0 °F - 41.0 °F 48% 30.25 in 10.0 mi SE 9.2 mph - N/A   Overcast
2:53 PM 61.0 °F - 42.1 °F 50% 30.25 in 10.0 mi ESE 6.9 mph - N/A   Overcast
3:53 PM 60.1 °F - 44.1 °F 55% 30.26 in 10.0 mi ESE 4.6 mph - N/A   Overcast
4:53 PM 59.0 °F - 46.0 °F 62% 30.25 in 10.0 mi SSE 10.4 mph - N/A   Overcast
5:53 PM 55.0 °F - 48.0 °F 77% 30.25 in 10.0 mi SSE 8.1 mph - 0.02 in   Overcast
6:53 PM 55.0 °F - 46.9 °F 74% 30.24 in 10.0 mi SE 8.1 mph - N/A   Overcast
7:53 PM 54.0 °F - 46.9 °F 77% 30.24 in 10.0 mi SE 9.2 mph - 0.00 in Rain Light Rain
8:53 PM 53.1 °F - 50.0 °F 89% 30.23 in 7.0 mi ESE 6.9 mph - 0.09 in Rain Light Rain
9:42 PM 51.8 °F - 48.2 °F 88% 30.22 in 10.0 mi East 4.6 mph - 0.01 in   Overcast
9:53 PM 53.1 °F - 48.9 °F 86% 30.22 in 10.0 mi ESE 4.6 mph - 0.01 in   Overcast
10:39 PM 53.6 °F - 48.2 °F 82% 30.21 in 10.0 mi ESE 4.6 mph - 0.00 in   Overcast
10:53 PM 53.1 °F - 48.9 °F 86% 30.20 in 10.0 mi ESE 4.6 mph - 0.00 in   Overcast
11:53 PM 53.1 °F - 48.9 °F 86% 30.19 in 10.0 mi Calm Calm - N/A   Overcast